Total_Precipitation_Accumulation
0.00 0.00 0.00 0.00 0.00 0.00 0.00 0.00 0.00 0.01 0.01 0.01 0.02 0.07 0.14 0.25 0.32 0.34 0.32 0.24 0.24 0.30 0.35 0.52 0.73 0.98 1.25 1.41 1.45 1.55 1.69 1.86 2.03 2.31 2.59 2.73 2.82 3.07 3.19 3.30 3.43 3.39 3.31 3.38
0.00 0.00 0.00 0.00 0.00 0.00 0.00 0.01 0.01 0.02 0.02 0.03 0.05 0.13 0.22 0.29 0.30 0.36 0.40 0.34 0.32 0.38 0.52 0.80 1.06 1.43 1.61 1.66 1.65 1.72 1.82 2.04 2.29 2.64 3.06 3.49 3.68 3.85 3.87 3.91 4.09 4.18 4.20 4.32
0.00 0.00 0.00 0.00 0.00 0.00 0.01 0.01 0.02 0.03 0.04 0.05 0.10 0.28 0.38 0.42 0.42 0.46 0.52 0.58 0.56 0.65 0.85 1.06 1.26 1.39 1.57 1.68 1.77 1.86 2.14 2.52 2.95 3.41 3.89 4.32 4.62 4.65 4.59 4.35 4.39 4.50 4.49 4.54
0.00 0.00 0.00 0.00 0.01 0.01 0.01 0.01 0.01 0.02 0.04 0.08 0.11 0.37 0.65 0.71 0.70 0.61 0.60 0.62 0.62 0.71 0.88 1.03 1.22 1.43 1.54 1.68 1.86 1.98 2.29 2.81 3.27 3.73 4.36 4.87 5.17 5.31 5.39 5.20 4.89 4.72 4.56 4.45
0.01 0.00 0.00 0.01 0.01 0.01 0.01 0.01 0.01 0.01 0.03 0.08 0.09 0.28 0.73 0.87 0.93 0.83 0.67 0.64 0.58 0.54 0.64 0.81 0.95 1.27 1.53 1.62 1.67 1.78 2.18 2.76 3.49 4.19 4.71 5.17 5.55 5.68 5.61 5.28 4.90 4.49 4.16 3.77
0.01 0.01 0.01 0.01 0.01 0.01 0.01 0.01 0.01 0.02 0.05 0.11 0.13 0.24 0.71 1.07 1.23 1.20 0.87 0.68 0.58 0.48 0.49 0.55 0.67 0.92 1.25 1.35 1.51 1.76 2.11 2.79 3.55 4.14 4.62 4.96 5.29 5.31 5.05 4.65 4.19 3.88 3.51 3.09
0.03 0.02 0.02 0.01 0.01 0.01 0.01 0.02 0.10 0.17 0.20 0.20 0.18 0.32 0.78 1.01 0.97 0.92 0.78 0.64 0.62 0.47 0.44 0.47 0.53 0.71 0.96 1.16 1.45 1.83 2.22 2.75 3.21 3.71 4.12 4.34 4.50 4.53 4.45 4.21 3.84 3.55 3.18 2.79
0.09 0.06 0.02 0.01 0.01 0.01 0.01 0.03 0.16 0.25 0.27 0.30 0.35 0.62 1.06 0.93 0.71 0.72 0.70 0.59 0.56 0.54 0.53 0.58 0.67 0.79 0.94 1.08 1.29 1.64 1.98 2.40 2.64 2.87 3.20 3.42 3.54 3.55 3.46 3.29 3.04 2.74 2.45 2.19
0.12 0.11 0.04 0.01 0.01 0.01 0.01 0.03 0.06 0.09 0.16 0.33 0.61 0.97 1.38 1.33 0.91 0.72 0.69 0.58 0.52 0.50 0.49 0.58 0.68 0.77 0.84 0.93 1.12 1.29 1.48 1.75 2.03 2.26 2.41 2.51 2.55 2.47 2.39 2.22 2.00 1.82 1.65 1.46
0.12 0.11 0.06 0.02 0.02 0.02 0.03 0.04 0.06 0.10 0.25 0.51 0.71 1.10 1.58 1.64 1.23 0.99 0.78 0.65 0.58 0.52 0.52 0.58 0.62 0.66 0.68 0.72 0.87 1.00 1.16 1.31 1.48 1.63 1.67 1.61 1.60 1.59 1.46 1.34 1.25 1.10 0.96 0.86
0.18 0.17 0.09 0.04 0.04 0.06 0.05 0.06 0.08 0.11 0.16 0.44 0.78 1.24 1.57 1.81 1.66 1.37 1.02 0.77 0.68 0.65 0.60 0.57 0.55 0.54 0.52 0.53 0.63 0.74 0.82 0.97 1.08 1.12 1.13 1.05 0.99 0.92 0.86 0.79 0.78 0.70 0.63 0.62
0.15 0.22 0.17 0.09 0.08 0.06 0.07 0.08 0.09 0.18 0.22 0.30 0.63 1.44 1.78 2.03 1.93 1.64 1.22 0.93 0.81 0.74 0.66 0.56 0.49 0.44 0.42 0.44 0.48 0.54 0.62 0.67 0.70 0.69 0.66 0.64 0.60 0.58 0.57 0.55 0.54 0.55 0.53 0.51
0.11 0.25 0.39 0.41 0.32 0.13 0.09 0.11 0.12 0.15 0.22 0.33 0.64 1.47 1.79 1.75 1.70 1.62 1.40 1.13 0.93 0.81 0.67 0.59 0.53 0.47 0.45 0.46 0.45 0.43 0.46 0.50 0.51 0.50 0.49 0.46 0.46 0.47 0.49 0.51 0.50 0.49 0.49 0.47
0.06 0.24 0.56 0.80 0.74 0.34 0.21 0.16 0.15 0.17 0.31 0.42 0.66 1.12 1.44 1.49 1.48 1.60 1.60 1.28 0.99 0.80 0.68 0.68 0.67 0.61 0.54 0.48 0.47 0.44 0.43 0.43 0.47 0.46 0.44 0.39 0.37 0.38 0.40 0.41 0.41 0.41 0.41 0.44
0.09 0.27 0.30 0.30 0.31 0.29 0.27 0.22 0.21 0.21 0.24 0.47 0.78 1.08 1.47 1.67 1.58 1.54 1.46 1.22 0.97 0.86 0.82 0.80 0.77 0.69 0.61 0.57 0.54 0.50 0.49 0.47 0.47 0.49 0.52 0.49 0.43 0.40 0.40 0.41 0.44 0.43 0.39 0.36
0.10 0.24 0.25 0.26 0.21 0.26 0.31 0.31 0.33 0.37 0.42 0.55 0.87 1.33 1.76 1.85 1.69 1.60 1.53 1.36 1.18 1.10 1.04 0.98 0.90 0.83 0.78 0.74 0.68 0.63 0.60 0.58 0.57 0.59 0.62 0.63 0.61 0.57 0.52 0.47 0.43 0.37 0.33 0.27
0.10 0.23 0.34 0.39 0.24 0.35 0.60 0.50 0.44 0.50 0.57 0.72 1.10 1.41 1.54 1.62 1.66 1.68 1.72 1.62 1.42 1.30 1.21 1.15 1.10 1.02 0.96 0.92 0.87 0.81 0.75 0.70 0.68 0.68 0.69 0.68 0.64 0.58 0.49 0.38 0.32 0.28 0.25 0.22
0.10 0.23 0.33 0.39 0.43 0.81 0.80 0.47 0.45 0.57 0.66 0.76 0.92 1.09 1.21 1.22 1.28 1.34 1.43 1.47 1.40 1.27 1.20 1.16 1.14 1.12 1.10 1.00 0.92 0.86 0.80 0.74 0.71 0.71 0.68 0.63 0.55 0.48 0.38 0.31 0.27 0.25 0.23 0.23
0.07 0.18 0.33 0.41 0.60 0.79 0.76 0.45 0.41 0.71 1.11 0.92 0.87 0.81 0.77 0.75 0.83 1.09 1.24 1.27 1.29 1.32 1.31 1.24 1.16 1.08 1.04 0.99 0.92 0.87 0.84 0.79 0.71 0.66 0.57 0.47 0.40 0.35 0.29 0.26 0.24 0.23 0.21 0.20
0.08 0.14 0.33 0.46 0.71 0.96 0.95 0.42 0.29 0.58 1.33 1.10 0.92 0.83 0.77 0.83 0.97 1.02 1.01 0.99 1.05 1.11 1.12 1.05 0.94 0.85 0.82 0.82 0.79 0.72 0.68 0.64 0.56 0.45 0.37 0.32 0.30 0.29 0.27 0.24 0.23 0.22 0.21 0.20
0.30 0.31 0.41 0.56 0.83 1.04 0.54 0.22 0.35 0.92 1.23 1.07 0.91 0.80 0.77 0.94 0.93 0.73 0.68 0.73 0.76 0.82 0.81 0.76 0.72 0.74 0.73 0.66 0.56 0.51 0.45 0.41 0.35 0.29 0.26 0.25 0.24 0.21 0.23 0.24 0.23 0.23 0.22 0.23
0.42 0.49 0.56 0.68 0.94 1.05 0.42 0.26 0.50 0.67 0.62 0.70 0.72 0.68 0.63 0.58 0.48 0.44 0.45 0.49 0.52 0.55 0.56 0.55 0.56 0.59 0.57 0.46 0.40 0.39 0.35 0.28 0.23 0.24 0.26 0.26 0.22 0.17 0.20 0.27 0.27 0.25 0.28 0.30
0.38 0.45 0.55 0.69 0.87 0.71 0.37 0.29 0.33 0.38 0.51 0.50 0.47 0.42 0.33 0.30 0.27 0.29 0.32 0.33 0.36 0.38 0.42 0.45 0.43 0.43 0.43 0.40 0.38 0.37 0.34 0.26 0.25 0.29 0.31 0.27 0.22 0.20 0.23 0.27 0.27 0.26 0.27 0.25
0.40 0.29 0.34 0.46 0.58 0.46 0.36 0.28 0.26 0.28 0.34 0.30 0.30 0.30 0.22 0.22 0.25 0.27 0.30 0.29 0.29 0.32 0.34 0.37 0.36 0.35 0.37 0.36 0.36 0.37 0.32 0.30 0.36 0.40 0.36 0.27 0.25 0.24 0.24 0.24 0.21 0.19 0.20 0.18
0.41 0.33 0.30 0.44 0.51 0.47 0.46 0.28 0.22 0.20 0.19 0.18 0.23 0.23 0.19 0.16 0.21 0.24 0.27 0.28 0.29 0.30 0.32 0.33 0.34 0.33 0.28 0.27 0.28 0.28 0.31 0.35 0.45 0.44 0.34 0.27 0.24 0.23 0.22 0.19 0.13 0.09 0.09 0.07
0.26 0.30 0.30 0.38 0.36 0.42 0.47 0.30 0.20 0.22 0.21 0.19 0.18 0.19 0.21 0.19 0.20 0.21 0.23 0.26 0.27 0.25 0.26 0.30 0.31 0.28 0.25 0.24 0.24 0.25 0.30 0.32 0.39 0.40 0.29 0.22 0.18 0.16 0.14 0.14 0.14 0.07 0.03 0.03